TimeAKST,TemperatureF,Dew PointF,Humidity,Sea Level PressureIn,VisibilityMPH,Wind Direction,Wind SpeedMPH,Gust SpeedMPH,PrecipitationIn,Events,Conditions,WindDirDegrees,DateUTC
12:53 AM,28.0,25.0,88,29.88,5.0,NNW,3.5,-,0.00,Snow,Light Snow,340,2013-11-27 09:53:00
1:36 AM,28.4,24.8,86,29.85,2.5,Calm,Calm,-,0.01,Snow,Light Snow,0,2013-11-27 10:36:00
1:48 AM,28.4,24.8,86,29.84,3.0,Calm,Calm,-,0.01,Snow,Light Snow,0,2013-11-27 10:48:00
1:53 AM,28.0,25.0,88,29.86,3.0,NW,3.5,-,0.01,Snow,Light Snow,320,2013-11-27 10:53:00
2:14 AM,28.4,26.6,93,29.84,2.5,NW,3.5,-,0.00,Snow,Light Snow,320,2013-11-27 11:14:00
2:31 AM,28.4,26.6,93,29.84,1.8,Calm,Calm,-,0.00,Snow,Light Snow,0,2013-11-27 11:31:00
3:53 AM,28.0,26.1,92,29.85,1.5,Calm,Calm,-,0.02,Snow,Light Snow,0,2013-11-27 12:53:00
4:53 AM,28.0,26.1,92,29.84,1.5,Calm,Calm,-,0.02,Snow,Light Snow,0,2013-11-27 13:53:00
5:12 AM,26.6,24.8,93,29.82,2.0,Calm,Calm,-,0.01,Snow,Light Snow,0,2013-11-27 14:12:00
5:28 AM,26.6,24.8,93,29.81,1.8,Calm,Calm,-,0.02,Snow,Light Snow,0,2013-11-27 14:28:00
5:53 AM,27.0,25.0,92,29.83,1.2,Calm,Calm,-,0.03,Snow,Light Snow,0,2013-11-27 14:53:00
6:44 AM,26.6,24.8,93,29.80,1.0,Calm,Calm,-,0.03,Snow,Light Snow,0,2013-11-27 15:44:00
6:53 AM,27.0,24.1,89,29.82,1.0,Calm,Calm,-,0.04,Snow,Light Snow,0,2013-11-27 15:53:00
7:10 AM,26.6,24.8,93,29.79,2.5,Calm,Calm,-,0.00,Snow,Light Snow,0,2013-11-27 16:10:00
7:24 AM,26.6,24.8,93,29.79,3.0,Calm,Calm,-,0.00,Snow,Light Snow,0,2013-11-27 16:24:00
7:33 AM,26.6,24.8,93,29.79,1.8,Calm,Calm,-,0.01,Snow,Light Snow,0,2013-11-27 16:33:00
7:53 AM,26.1,24.1,92,29.81,2.5,Calm,Calm,-,0.01,Snow,Light Snow,0,2013-11-27 16:53:00
8:00 AM,26.6,24.8,93,29.79,4.0,Calm,Calm,-,0.00,Snow,Light Snow,0,2013-11-27 17:00:00
8:38 AM,26.6,24.8,93,29.78,1.0,Calm,Calm,-,0.01,Snow,Light Snow,0,2013-11-27 17:38:00
8:45 AM,26.6,24.8,93,29.78,0.8,Calm,Calm,-,0.01,Snow,Light Snow,0,2013-11-27 17:45:00
8:50 AM,26.6,24.8,93,29.78,1.0,Calm,Calm,-,0.02,Snow,Light Snow,0,2013-11-27 17:50:00
8:53 AM,26.1,24.1,92,29.81,1.2,Calm,Calm,-,0.02,Snow,Light Snow,0,2013-11-27 17:53:00
8:58 AM,26.6,24.8,93,29.78,3.0,South,3.5,-,0.00,Snow,Light Snow,170,2013-11-27 17:58:00
9:53 AM,26.1,24.1,92,29.80,3.0,Calm,Calm,-,0.00,Snow,Light Snow,0,2013-11-27 18:53:00
10:00 AM,26.6,24.8,93,29.77,2.5,Calm,Calm,-,0.00,Snow,Light Snow,0,2013-11-27 19:00:00
10:17 AM,26.6,24.8,93,29.77,1.8,Calm,Calm,-,0.00,Snow,Light Snow,0,2013-11-27 19:17:00
10:45 AM,26.6,24.8,93,29.76,1.8,Calm,Calm,-,0.00,Snow,Light Snow,0,2013-11-27 19:45:00
10:53 AM,26.1,24.1,92,29.78,1.8,Calm,Calm,-,0.00,Snow,Light Snow,0,2013-11-27 19:53:00
11:00 AM,26.6,24.8,93,29.76,2.5,Calm,Calm,-,0.00,Snow,Light Snow,0,2013-11-27 20:00:00
11:09 AM,26.6,24.8,93,29.75,3.0,Calm,Calm,-,0.00,Snow,Light Snow,0,2013-11-27 20:09:00
11:20 AM,26.6,24.8,93,29.75,0.8,Calm,Calm,-,0.00,Snow,Light Snow,0,2013-11-27 20:20:00
11:53 AM,26.1,24.1,92,29.77,0.8,SW,3.5,-,0.00,Snow,Light Snow,230,2013-11-27 20:53:00
12:06 PM,26.6,24.8,93,29.75,1.0,SSW,5.8,-,0.00,Snow,Light Snow,200,2013-11-27 21:06:00
12:34 PM,26.6,24.8,93,29.74,2.5,South,4.6,-,0.00,Snow,Light Snow,180,2013-11-27 21:34:00
12:45 PM,26.6,24.8,93,29.74,1.8,SSW,3.5,-,0.00,Snow,Light Snow,200,2013-11-27 21:45:00
12:53 PM,26.1,24.1,92,29.76,2.0,Calm,Calm,-,0.00,Snow,Light Snow,0,2013-11-27 21:53:00
1:09 PM,26.6,24.8,93,29.73,0.8,Calm,Calm,-,0.00,Snow,Light Snow,0,2013-11-27 22:09:00
1:32 PM,26.6,24.8,93,29.73,0.2,Calm,Calm,-,0.01,Fog-Snow,Snow,0,2013-11-27 22:32:00
1:53 PM,27.0,25.0,92,29.73,0.8,Calm,Calm,-,0.02,Snow,Light Snow,0,2013-11-27 22:53:00
2:00 PM,26.6,24.8,93,29.71,1.0,South,3.5,-,0.01,Snow,Light Snow,180,2013-11-27 23:00:00
2:39 PM,28.4,24.8,86,29.70,0.8,South,4.6,-,0.01,Snow,Light Snow,170,2013-11-27 23:39:00
2:48 PM,28.4,24.8,86,29.70,0.5,South,4.6,-,0.02,Fog-Snow,Snow,180,2013-11-27 23:48:00
2:53 PM,28.0,25.0,88,29.71,0.8,South,3.5,-,0.02,Snow,Light Snow,180,2013-11-27 23:53:00
3:04 PM,28.4,26.6,93,29.69,1.2,South,4.6,-,0.00,Snow,Light Snow,190,2013-11-28 00:04:00
3:17 PM,28.4,24.8,86,29.69,3.0,Calm,Calm,-,0.00,,Overcast,0,2013-11-28 00:17:00
3:29 PM,28.4,26.6,93,29.68,10.0,SSW,4.6,-,0.00,,Overcast,210,2013-11-28 00:29:00
3:53 PM,28.0,26.1,92,29.70,10.0,SSW,6.9,-,0.00,,Overcast,200,2013-11-28 00:53:00
4:21 PM,28.4,26.6,93,29.68,10.0,Calm,Calm,-,N/A,,Overcast,0,2013-11-28 01:21:00
4:53 PM,27.0,25.0,92,29.69,10.0,SW,3.5,-,N/A,,Overcast,220,2013-11-28 01:53:00
5:15 PM,26.6,24.8,93,29.66,10.0,Calm,Calm,-,N/A,,Overcast,0,2013-11-28 02:15:00
5:53 PM,26.1,21.9,84,29.68,10.0,South,4.6,-,N/A,,Overcast,180,2013-11-28 02:53:00
6:35 PM,24.8,21.2,86,29.65,5.0,South,5.8,-,0.00,Snow,Light Snow,190,2013-11-28 03:35:00
6:53 PM,26.1,21.9,84,29.67,10.0,South,5.8,-,0.00,,Overcast,170,2013-11-28 03:53:00
7:22 PM,24.8,17.6,74,29.64,10.0,South,9.2,-,N/A,,Overcast,170,2013-11-28 04:22:00
7:36 PM,24.8,17.6,74,29.64,10.0,South,9.2,-,N/A,,Overcast,170,2013-11-28 04:36:00
7:53 PM,23.0,16.0,74,29.66,10.0,SSE,8.1,-,N/A,,Overcast,160,2013-11-28 04:53:00
8:37 PM,21.2,15.8,80,29.64,10.0,SSE,8.1,-,N/A,,Overcast,160,2013-11-28 05:37:00
8:53 PM,21.0,14.0,74,29.66,10.0,SSE,9.2,-,N/A,,Overcast,160,2013-11-28 05:53:00
9:04 PM,21.2,14.0,74,29.64,10.0,SSE,8.1,-,N/A,,Overcast,160,2013-11-28 06:04:00
9:50 PM,19.4,15.8,86,29.64,2.5,SE,6.9,-,0.00,Snow,Light Snow,140,2013-11-28 06:50:00
9:53 PM,19.9,15.1,81,29.66,2.5,SE,6.9,-,0.00,Snow,Light Snow,140,2013-11-28 06:53:00
10:02 PM,19.4,14.0,80,29.64,3.0,Variable,4.6,-,0.00,Snow,Light Snow,0,2013-11-28 07:02:00
10:15 PM,19.4,14.0,80,29.65,1.8,ESE,5.8,-,0.00,Snow,Light Snow,110,2013-11-28 07:15:00
10:48 PM,19.4,14.0,80,29.65,2.5,Variable,3.5,-,0.01,Snow,Light Snow,0,2013-11-28 07:48:00
10:53 PM,19.9,14.0,78,29.68,2.0,Calm,Calm,-,0.01,Snow,Light Snow,0,2013-11-28 07:53:00
11:02 PM,19.4,15.8,86,29.66,1.8,Variable,3.5,-,0.00,Snow,Light Snow,0,2013-11-28 08:02:00
11:18 PM,19.4,14.0,80,29.66,2.5,Calm,Calm,-,0.00,Snow,Light Snow,0,2013-11-28 08:18:00
11:30 PM,19.4,14.0,80,29.66,3.0,NE,4.6,-,0.00,Snow,Light Snow,50,2013-11-28 08:30:00
11:53 PM,19.9,15.1,81,29.69,5.0,NE,4.6,-,0.00,Snow,Light Snow,50,2013-11-28 08:53:00